EW4120 Weather Reports


time (UTC)temp
C
wind
direction
speed
KPH
gust
KPH
rain 1hr
cm
rain 24hr
cm
rain mn
cm
humidity
%
barometer
mb
20260506152517 19 0.0 3.2 0.00 0.00 0.00 78 1014.3
20260506151517 19 0.0 8.0 0.00 0.00 0.00 78 1014.5
20260506150517 19 315 1.6 9.7 0.00 0.00 0.00 77 1014.3
20260506145517 19 293 1.6 6.4 0.00 0.00 0.00 78 1014.4
20260506144516 19 315 1.6 8.0 0.00 0.00 0.00 77 1014.5
20260506143537 19 0.0 6.4 0.00 0.00 0.00 77 1014.5
20260506142637 19 293 1.6 14.5 0.00 0.00 0.00 76 1014.3
20260506141537 19 315 1.6 6.4 0.00 0.00 0.00 76 1014.3
20260506140536 19 315 1.6 6.4 0.00 0.00 0.00 77 1014.4
20260506135536 18 0.0 4.8 0.00 0.00 0.00 77 1014.2
20260506134516 18 315 1.6 6.4 0.00 0.00 0.00 77 1014.2
20260506133536 18 45 1.6 6.4 0.00 0.00 0.00 78 1014.3
20260506132617 18 315 1.6 8.0 0.00 0.00 0.00 78 1014.0
20260506131516 18 293 3.2 12.9 0.00 0.00 0.00 79 1013.9
20260506130557 17 293 1.6 8.0 0.00 0.00 0.00 79 1013.9
20260506125516 17 270 1.6 8.0 0.00 0.00 0.00 79 1014.4
20260506124536 17 0.0 3.2 0.00 0.00 0.00 80 1014.4
20260506123616 17 315 1.6 8.0 0.00 0.00 0.00 80 1014.5
20260506122516 17 0.0 6.4 0.00 0.00 0.00 81 1014.7
20260506121616 17 270 1.6 4.8 0.00 0.00 0.00 81 1014.7
20260506120536 17 293 1.6 4.8 0.00 0.00 0.00 81 1014.6
20260506115516 16 315 1.6 9.7 0.00 0.00 0.00 81 1014.6
20260506114516 16 293 1.6 8.0 0.00 0.00 0.00 81 1014.5
20260506113516 16 293 1.6 6.4 0.00 0.00 0.00 82 1014.4
20260506112516 16 293 1.6 6.4 0.00 0.00 0.00 82 1014.4
20260506111516 16 0.0 1.6 0.00 0.00 0.00 82 1014.4
20260506110516 16 0.0 6.4 0.00 0.00 0.00 82 1014.2
20260506105616 16 0.0 3.2 0.00 0.00 0.00 82 1014.0
20260506104536 16 0.0 3.2 0.00 0.00 0.00 82 1013.8
20260506103536 16 315 1.6 4.8 0.00 0.00 0.00 81 1013.8
20260506102536 16 315 1.6 6.4 0.00 0.00 0.00 81 1013.9
20260506101516 16 0.0 4.8 0.00 0.00 0.00 80 1013.9
20260506100516 16 315 1.6 11.3 0.00 0.00 0.00 81 1013.5
20260506095516 16 315 1.6 4.8 0.00 0.00 0.00 80 1013.8
20260506094556 16 315 1.6 8.0 0.00 0.00 0.00 80 1013.9
20260506093616 16 0.0 4.8 0.00 0.00 0.00 80 1014.1
20260506092636 16 315 1.6 11.3 0.00 0.00 0.00 80 1013.9
20260506091556 16 293 1.6 6.4 0.00 0.00 0.00 79 1014.2
20260506090536 17 315 1.6 6.4 0.00 0.00 0.00 79 1014.3
20260506085516 17 315 1.6 6.4 0.00 0.00 0.00 78 1014.4
20260506084516 17 315 3.2 14.5 0.00 0.00 0.00 78 1014.4
20260506083536 17 315 1.6 6.4 0.00 0.00 0.00 78 1014.3
20260506082516 17 293 1.6 11.3 0.00 0.00 0.00 78 1014.4
20260506081616 17 0.0 4.8 0.00 0.00 0.00 77 1014.3
20260506080637 17 315 1.6 8.0 0.00 0.00 0.00 77 1014.5
20260506072536 17 315 1.6 6.4 0.00 0.00 0.00 78 1014.3
20260506071516 17 315 1.6 8.0 0.00 0.00 0.00 78 1014.2
20260506070556 17 315 1.6 6.4 0.00 0.00 0.00 78 1014.3
20260506062516 17 315 1.6 8.0 0.00 0.00 0.00 76 1014.8
20260506061556 17 315 1.6 6.4 0.00 0.00 0.00 76 1014.8
20260506060516 17 315 1.6 6.4 0.00 0.00 0.00 75 1014.7
20260506050518 18 293 3.2 9.7 0.00 0.00 0.00 71 1014.8
20260506044538 18 315 1.6 6.4 0.00 0.00 0.00 69 1015.1
20260506043517 18 315 3.2 12.9 0.00 0.00 0.00 68 1015.0
20260506042517 18 315 1.6 6.4 0.00 0.00 0.00 67 1015.0
20260506041517 18 0.0 3.2 0.00 0.00 0.00 66 1015.0
20260506040517 18 0.0 6.4 0.00 0.00 0.00 66 1014.9
20260506035536 18 293 1.6 6.4 0.00 0.00 0.00 65 1014.8
20260506034516 18 0.0 6.4 0.00 0.00 0.00 66 1014.7
20260506033636 18 0.0 3.2 0.00 0.00 0.00 65 1014.5
20260506032536 18 0.0 1.6 0.00 0.00 0.00 64 1014.5
20260506031536 18 0.0 0.0 0.00 0.00 0.00 64 1014.5
20260506030516 18 0.0 1.6 0.00 0.00 0.00 63 1014.7
20260506025556 18 0.0 3.2 0.00 0.00 0.00 63 1014.7
20260506024556 18 0.0 1.6 0.00 0.00 0.00 62 1014.8
20260506023516 18 0.0 3.2 0.00 0.00 0.00 62 1015.0
20260506022516 19 0.0 1.6 0.00 0.00 0.00 61 1014.9
20260506021656 19 0.0 6.4 0.00 0.00 0.00 61 1015.0
20260506020616 19 0.0 1.6 0.00 0.00 0.00 61 1014.9
20260506015556 19 0.0 0.0 0.00 0.00 0.00 60 1014.7
20260506014616 19 0.0 0.0 0.00 0.00 0.00 60 1014.6
20260506013516 20 0.0 0.0 0.00 0.00 0.00 59 1014.6
20260506012556 20 0.0 0.0 0.00 0.00 0.00 59 1014.4
20260506011536 20 0.0 0.0 0.00 0.00 0.00 58 1014.4
20260506010536 20 0.0 1.6 0.00 0.00 0.00 56 1014.3
20260506005518 21 0.0 1.6 0.00 0.00 0.00 55 1014.1
20260506004518 21 0.0 3.2 0.00 0.00 0.00 54 1014.0
20260506003518 21 0.0 3.2 0.00 0.00 0.00 53 1013.9
20260506002538 21 0.0 1.6 0.00 0.00 0.00 52 1013.7
20260506001517 22 0.0 1.6 0.00 0.00 0.00 50 1013.7
20260506000638 22 0.0 3.2 0.00 0.00 0.00 49 1013.8
20260505235538 22 0.0 1.6 0.00 0.00 0.00 48 1013.6
20260505234518 23 293 1.6 8.0 0.00 0.00 0.00 47 1013.4
20260505233517 23 315 1.6 6.4 0.00 0.00 0.00 46 1013.5
20260505232557 23 0.0 3.2 0.00 0.00 0.00 45 1013.2
20260505231517 24 293 1.6 9.7 0.00 0.00 0.00 43 1013.3
20260505230517 25 315 1.6 9.7 0.00 0.00 0.00 41 1013.2
20260505225517 26 293 1.6 16.1 0.00 0.00 0.00 41 1013.3
20260505224517 26 293 3.2 12.9 0.00 0.00 0.00 41 1013.4
20260505223517 26 293 1.6 4.8 0.00 0.00 0.00 41 1013.5
20260505222537 26 315 3.2 9.7 0.00 0.00 0.00 40 1013.5
20260505221517 26 293 1.6 14.5 0.00 0.00 0.00 40 1013.7
20260505220537 26 293 1.6 9.7 0.00 0.00 0.00 41 1013.8
20260505215517 26 293 3.2 19.3 0.00 0.00 0.00 39 1013.7
20260505214557 27 315 1.6 8.0 0.00 0.00 0.00 39 1013.8
20260505213517 27 293 3.2 11.3 0.00 0.00 0.00 39 1013.8
20260505212517 27 315 3.2 9.7 0.00 0.00 0.00 38 1013.8
20260505211517 27 315 3.2 11.3 0.00 0.00 0.00 39 1013.9
20260505210537 27 293 3.2 11.3 0.00 0.00 0.00 38 1014.0
20260505204537 27 293 3.2 19.3 0.00 0.00 0.00 38 1014.0
20260505203658 27 113 1.6 8.0 0.00 0.00 0.00 38 1014.1
20260505202517 27 315 3.2 9.7 0.00 0.00 0.00 39 1014.1
20260505201537 27 315 4.8 11.3 0.00 0.00 0.00 40 1014.3
20260505200517 27 293 4.8 12.9 0.00 0.00 0.00 39 1014.4
20260505195517 27 90 1.6 9.7 0.00 0.00 0.00 38 1014.5
20260505194537 27 315 3.2 14.5 0.00 0.00 0.00 38 1014.9
20260505193517 27 270 3.2 9.7 0.00 0.00 0.00 42 1014.9
20260505192517 27 293 3.2 16.1 0.00 0.00 0.00 39 1015.0
20260505191537 27 293 3.2 17.7 0.00 0.00 0.00 45 1015.1
20260505190517 26 248 4.8 16.1 0.00 0.00 0.00 40 1015.4
20260505185517 27 113 3.2 9.7 0.00 0.00 0.00 41 1015.4
20260505184537 27 293 3.2 9.7 0.00 0.00 0.00 41 1015.7
20260505183517 27 293 1.6 9.7 0.00 0.00 0.00 42 1015.8
20260505182657 26 45 3.2 9.7 0.00 0.00 0.00 46 1015.9
20260505181517 26 90 1.6 8.0 0.00 0.00 0.00 44 1015.8
20260505180517 26 315 3.2 12.9 0.00 0.00 0.00 45 1016.0
20260505175517 26 270 3.2 9.7 0.00 0.00 0.00 45 1016.1
20260505174517 25 293 1.6 9.7 0.00 0.00 0.00 45 1016.0
20260505173517 25 315 3.2 16.1 0.00 0.00 0.00 46 1016.2
20260505172637 26 248 1.6 6.4 0.00 0.00 0.00 47 1016.4
20260505171517 25 90 1.6 4.8 0.00 0.00 0.00 47 1016.3
20260505170617 25 270 3.2 9.7 0.00 0.00 0.00 45 1016.3
20260505165537 25 315 3.2 8.0 0.00 0.00 0.00 45 1016.3
20260505164537 25 293 3.2 9.7 0.00 0.00 0.00 51 1016.5
20260505163517 25 23 3.2 14.5 0.00 0.00 0.00 49 1016.6
20260505162517 25 315 1.6 8.0 0.00 0.00 0.00 49 1016.6
20260505161517 24 113 3.2 11.3 0.00 0.00 0.00 49 1016.7
20260505160537 24 293 1.6 11.3 0.00 0.00 0.00 50 1016.8